Tracking 30744 objects as of 23-Jun-2025
HD Live streaming from Space Station
objects crossing your sky now

AFR-1

Track AFR-1 now!
10-day predictions


NORAD ID: 56964
Int'l Code: 2023-084AJ
Perigee: 492.3 km
Apogee: 509.1 km
Inclination: 97.6 °
Period: 94.5 minutes
Semi major axis: 6871 km
RCS: Unknown
Launch date: June 12, 2023
Source: India (IND)
Launch site: AIR FORCE WESTERN TEST RANGE (AFWTR)
Your satellite tracking list
Your tracking list is empty




NASA's NSSDC Master Catalog

Two Line Element Set (TLE):
1 56964U 23084AJ  25173.71188622  .00003249  00000-0  13660-3 0  9997
2 56964  97.5820 299.1159 0012233 155.9232 204.2579 15.24089878112394
Source of the keplerian elements: AFSPC